DW1929 Weather Reports


time (UTC)temp
C
wind
direction
speed
KPH
gust
KPH
rain 1hr
cm
rain 24hr
cm
rain mn
cm
humidity
%
barometer
mb
20260504173823 25 339 4.8 17.7 0.00 0.15 0.15 62 1015.4
20260504172752 25 65 4.8 16.1 0.00 0.15 0.15 65 1015.4
20260504171734 25 333 3.2 16.1 0.00 0.15 0.15 63 1015.6
20260504141244 23 197 1.6 1.6 0.00 0.15 0.15 70 1015.8
20260504110542 12 231 0.0 0.0 0.00 0.15 0.15 96 1014.6
20260504100113 12 190 0.0 0.0 0.00 0.15 0.15 96 1014.1
20260504081819 13 190 0.0 0.0 0.00 0.15 0.15 95 1014.3
20260504080837 13 190 0.0 0.0 0.00 0.15 0.15 95 1014.4
20260504050259 16 227 0.0 0.0 0.00 0.15 0.00 92 1015.3
20260504045304 16 227 0.0 0.0 0.00 0.15 0.00 92 1015.3
20260504044317 16 227 0.0 0.0 0.00 0.15 0.00 92 1015.5
20260504042219 16 227 0.0 0.0 0.00 0.15 0.00 92 1015.5
20260504041218 16 227 0.0 0.0 0.00 0.15 0.00 92 1015.5
20260504040159 16 227 0.0 0.0 0.00 0.15 0.00 91 1015.7
20260504035146 16 227 0.0 0.0 0.00 0.15 0.15 92 1015.6
20260504034128 16 227 0.0 0.0 0.00 0.15 0.15 92 1015.7
20260504031954 16 227 0.0 0.0 0.00 0.23 0.15 91 1015.7
20260504030958 16 227 0.0 0.0 0.00 0.28 0.15 91 1015.8
20260504030013 16 227 0.0 0.0 0.00 0.28 0.15 91 1015.9
20260504025001 16 227 0.0 0.0 0.00 0.28 0.15 91 1015.6
20260504023929 16 227 0.0 0.0 0.00 0.28 0.15 91 1015.7
20260504022918 16 227 0.0 0.0 0.00 0.28 0.15 90 1015.5
20260504021913 17 227 0.0 0.0 0.00 0.28 0.15 90 1015.6
20260504020914 17 227 0.0 0.0 0.00 0.28 0.15 90 1015.5
20260504015928 17 227 0.0 0.0 0.00 0.28 0.15 89 1015.3
20260504014941 17 227 0.0 0.0 0.00 0.28 0.15 89 1015.3
20260504013923 18 227 0.0 0.0 0.00 0.28 0.15 87 1015.4
20260504012857 18 227 0.0 0.0 0.00 0.28 0.15 86 1015.4
20260504011850 18 227 0.0 0.0 0.00 0.28 0.15 84 1015.2
20260504010820 19 227 0.0 0.0 0.00 0.28 0.15 82 1015.0
20260504004625 19 227 0.0 0.0 0.00 0.28 0.15 82 1015.4
20260504003624 19 227 0.0 0.0 0.00 0.28 0.15 81 1015.0
20260504002554 20 227 0.0 0.0 0.00 0.28 0.15 79 1015.0
20260504001602 20 205 0.0 0.0 0.00 0.28 0.15 78 1014.7
20260504000541 20 205 0.0 1.6 0.00 0.28 0.15 77 1014.6
20260503235533 20 234 0.0 0.0 0.00 0.28 0.15 76 1014.5
20260503233422 21 207 0.0 0.0 0.00 0.28 0.15 75 1014.4
20260503232412 21 188 0.0 3.2 0.00 0.28 0.15 74 1014.5
20260503231357 21 292 0.0 3.2 0.00 0.28 0.15 73 1014.5
20260503225237 22 192 0.0 0.0 0.00 0.28 0.15 73 1014.5
20260503224205 22 238 0.0 3.2 0.00 0.28 0.15 72 1014.5
20260503223206 22 334 3.2 9.7 0.00 0.28 0.15 71 1014.6
20260503222156 22 297 1.6 8.0 0.00 0.28 0.15 70 1014.6
20260503221213 22 275 1.6 9.7 0.00 0.28 0.15 70 1014.5
20260503215026 23 5 3.2 14.5 0.00 0.28 0.15 70 1014.3
20260503214015 23 298 3.2 22.5 0.00 0.28 0.15 69 1014.4
20260503211837 23 301 3.2 14.5 0.00 0.28 0.15 69 1014.5
20260503210858 23 338 3.2 14.5 0.00 0.28 0.15 69 1014.5
20260503205843 23 317 4.8 16.1 0.00 0.30 0.15 67 1014.5
20260503204822 23 355 4.8 16.1 0.00 0.33 0.15 67 1014.8
20260503203845 23 313 4.8 14.5 0.00 0.41 0.15 66 1014.7
20260503202845 23 201 3.2 8.0 0.00 0.41 0.15 69 1014.6
20260503195608 23 128 4.8 16.1 0.00 0.41 0.15 66 1014.9
20260503194533 23 22 3.2 16.1 0.00 0.43 0.15 66 1015.2
20260503193509 23 269 3.2 12.9 0.00 0.46 0.15 65 1015.5
20260503192434 23 331 3.2 14.5 0.00 0.46 0.15 65 1015.6
20260503191436 23 344 3.2 14.5 0.00 0.48 0.15 65 1015.7
20260503190426 23 239 3.2 14.5 0.00 0.48 0.15 64 1015.6
20260503184329 23 314 4.8 17.7 0.00 0.48 0.15 66 1015.8
20260503183319 23 329 4.8 17.7 0.00 0.48 0.15 64 1015.8
20260503180027 23 232 4.8 25.7 0.00 0.48 0.15 70 1016.3
20260503175029 23 204 4.8 12.9 0.00 0.48 0.15 68 1016.3